Home > Weather > Camagüey > Past weeks

Flag for Cuba Past Weather in Camagüey, Cuba — Yesterday and Last 2 Weeks

Now
73 °F

Clear.


Feels Like: 70 °F
Forecast: 74 / 89 °F
Wind: 7 mph from East

Location: Camaguey Aeropuerto

Current Time: Jun 27, 2016 at 5:36:01 AM

Latest Report: Jun 27, 2016 at 4:52 AM


Visibility: 6 mi

Pressure: 30.01 "Hg

Humidity: 94%

Dew Point: 72 °F

Location of CamagüeyLocation

Past Weather in Camagüey — Graph

°F

Camagüey Temperature Yesterday

Maximum temperature yesterday: 90 °F (at 2:50 PM)
Minimum temperature yesterday: 72 °F (at 3:50 AM)
Average temperature yesterday: 80 °F

High & Low Weather Summary for the Past Weeks

 TemperatureHumidityPressure
High93 °F (Jun 17, 5:50 PM)94% (Jun 12, 4:50 AM)30.15 "Hg (Jun 12, 4:50 AM)
Low72 °F (Jun 14, 1:50 AM)38% (Jun 19, 2:50 PM)29.98 "Hg (Jun 13, 2:50 PM)
Average80 °F78%30.06 "Hg
* Reported Jun 12 3:50 AM — Jun 27 3:52 AM, Camagüey, Weather by CustomWeather, © 2016

Note: Actual official high and low records may vary slightly from our data, if they occured in-between our weather recording intervals... More about our weather records

Advertising

Camagüey Weather History for the Previous 24 Hours

Scroll right to see more
 ConditionsComfort  
Time TempWeatherWind HumidityBarometerVisibility
3:52 AM
Mon, Jun 27
73 °FClear.6 mph94%30.01 "Hg6 mi
2:52 AM75 °FClear.6 mph89%30.04 "Hg6 mi
1:50 AM75 °FClear.6 mph89%30.04 "Hg6 mi
12:51 AM75 °FClear.5 mph89%30.07 "Hg6 mi
11:50 PM
Sun, Jun 26
75 °FClear.3 mph89%30.09 "Hg6 mi
10:50 PM77 °FClear.7 mph83%30.07 "Hg6 mi
9:52 PM77 °FClear.7 mph83%30.07 "Hg6 mi
8:50 PM79 °FPassing clouds.6 mph79%30.07 "Hg6 mi
7:52 PM82 °FPassing clouds.13 mph70%30.04 "Hg6 mi
6:50 PM86 °FPassing clouds.14 mph62%30.04 "HgN/A
5:50 PM88 °FScattered clouds.15 mph59%30.01 "Hg6 mi
4:50 PM88 °FScattered clouds.13 mph59%30.04 "Hg6 mi
3:50 PM84 °FScattered clouds.14 mph66%30.04 "Hg6 mi
2:50 PM90 °FScattered clouds.10 mph52%30.04 "Hg6 mi
1:50 PM88 °FScattered clouds.18 mph59%30.07 "Hg6 mi
12:50 PM88 °FScattered clouds.8 mph55%30.07 "Hg6 mi
11:50 AM86 °FScattered clouds.9 mph62%30.09 "Hg6 mi
10:50 AM86 °FPassing clouds.12 mph59%30.09 "Hg6 mi
9:50 AM84 °FPassing clouds.9 mph66%30.07 "Hg6 mi
8:50 AM81 °FPassing clouds.9 mph79%30.07 "Hg6 mi
7:50 AM77 °FPassing clouds.7 mph89%30.07 "Hg6 mi
6:50 AM73 °FPassing clouds.7 mph89%30.07 "Hg6 mi
5:50 AM72 °FClear.5 mph88%30.07 "Hg6 mi
Weather by CustomWeather, © 2016

See weather overviewHow to use our weather pages